Hugo, OK

5:36 AM CDT on August 29, 2016 (GMT -0500)
Stamper Municipal

Weather History for KHHW - March, 2013

Change the Weather History Date:

Friday, March 1, 2013

  Actual Average Record
Temperature  
Mean Temperature 40 °F -  
Max Temperature 51 °F 64 °F 77 °F (2014)
Min Temperature 29 °F 40 °F 29 °F (2013)
Degree Days  
Heating Degree Days 25    
Moisture  
Dew Point 26 °F    
Average Humidity 60    
Maximum Humidity 88    
Minimum Humidity 38    
Precipitation  
Precipitation 0.00 in - - ()
Sea Level Pressure  
Sea Level Pressure 30.21 in    
Wind  
Wind Speed 9 mph (NNW)    
Max Wind Speed 18 mph    
Max Gust Speed 26 mph    
Visibility 10 miles    
Events      
Averages and records for this station are not official NWS values.
T = Trace of Precipitation, MM = Missing Value Source: NWS Daily Summary

Daily Weather History Graph

Daily Weather History Graph

Search for Another Location

Airport or City:

Trip Planner

Search our weather history database for the weather conditions in past years. The results will help you decide how hot, cold, wet, or windy it might be!

Date:

Astronomy

Mar. 01, 2013 Rise Set
Actual Time 6:50 AM CST 6:18 PM CST
Civil Twilight 6:25 AM CST 6:43 PM CST
Nautical Twilight 5:56 AM CST 7:12 PM CST
Astronomical Twilight 5:27 AM CST 7:41 PM CST
Moon 10:38 PM CST (3/1) 8:51 AM CST (3/1)
Length of Visible Light 12h 18m
Length of Day
11h 28m
Waning Gibbous, 83% of the Moon is Illuminated
Mar 1
Waning Gibbous
Mar 4
Last Quarter
Mar 11
New
Mar 19
First Quarter
Mar 27
Full

Hourly Weather History & Observations

Time (CST) Temp. Windchill Dew Point Humidity Pressure Visibility Wind Dir Wind Speed Gust Speed Precip Events Conditions
12:15 AM 36.5 °F 31.0 °F 28.6 °F 73% 30.19 in 10.0 mi North 6.9 mph - N/A   Clear
12:35 AM 35.6 °F 30.7 °F 28.4 °F 75% 30.19 in 10.0 mi North 5.8 mph - N/A   Clear
1:15 AM 34.2 °F 29.0 °F 28.0 °F 78% 30.21 in 10.0 mi NNW 5.8 mph - N/A   Clear
1:35 AM 33.6 °F 29.4 °F 28.0 °F 80% 30.21 in 10.0 mi NNW 4.6 mph - N/A   Clear
2:15 AM 32.0 °F 28.7 °F 27.9 °F 85% 30.19 in 10.0 mi NNW 3.5 mph - N/A   Clear
2:35 AM 32.0 °F 28.7 °F 27.9 °F 85% 30.19 in 10.0 mi NNW 3.5 mph - N/A   Clear
3:15 AM 31.8 °F 27.3 °F 27.5 °F 84% 30.19 in 10.0 mi WNW 4.6 mph - N/A   Clear
3:55 AM 31.1 °F 24.5 °F 28.0 °F 88% 30.19 in 10.0 mi WNW 6.9 mph - N/A   Clear
4:15 AM 30.7 °F 24.9 °F 27.5 °F 88% 30.19 in 10.0 mi WNW 5.8 mph - N/A   Clear
4:35 AM 30.7 °F 24.9 °F 27.5 °F 88% 30.19 in 10.0 mi NW 5.8 mph - N/A   Clear
4:55 AM 30.9 °F 24.3 °F 27.3 °F 86% 30.20 in 10.0 mi NW 6.9 mph - N/A   Clear
5:15 AM 30.9 °F 25.2 °F 27.3 °F 86% 30.20 in 10.0 mi NW 5.8 mph - N/A   Clear
5:35 AM 30.9 °F 25.2 °F 27.3 °F 86% 30.20 in 10.0 mi NW 5.8 mph - N/A   Clear
6:15 AM 30.0 °F 24.1 °F 26.6 °F 87% 30.20 in 10.0 mi NW 5.8 mph - N/A   Clear
6:35 AM 29.8 °F 23.0 °F 26.6 °F 88% 30.21 in 10.0 mi NW 6.9 mph - N/A   Clear
6:55 AM 30.0 °F 23.2 °F 26.4 °F 86% 30.22 in 10.0 mi NW 6.9 mph - N/A   Clear
7:15 AM 30.2 °F 24.3 °F 26.4 °F 86% 30.22 in 10.0 mi NW 5.8 mph - N/A   Clear
7:35 AM 31.1 °F 25.4 °F 26.8 °F 84% 30.22 in 10.0 mi NNW 5.8 mph - N/A   Clear
8:15 AM 33.3 °F 27.1 °F 27.9 °F 81% 30.24 in 10.0 mi NNW 6.9 mph - N/A   Clear
8:35 AM 35.6 °F 28.6 °F 28.0 °F 74% 30.25 in 10.0 mi North 9.2 mph - N/A   Clear
8:55 AM 37.0 °F 30.4 °F 27.5 °F 68% 30.25 in 10.0 mi North 9.2 mph - N/A   Clear
9:15 AM 38.1 °F 30.7 °F 27.0 °F 64% 30.25 in 10.0 mi North 11.5 mph - N/A   Clear
9:35 AM 38.8 °F 32.1 °F 26.4 °F 61% 30.25 in 10.0 mi North 10.4 mph 19.6 mph N/A   Clear
10:15 AM 41.4 °F 34.3 °F 26.2 °F 55% 30.25 in 10.0 mi North 12.7 mph 16.1 mph N/A   Clear
10:35 AM 42.3 °F 36.8 °F 26.1 °F 53% 30.25 in 10.0 mi NNW 9.2 mph - N/A   Clear
10:55 AM 44.4 °F 38.2 °F 26.2 °F 49% 30.24 in 10.0 mi NNW 12.7 mph 17.3 mph N/A   Clear
11:15 AM 45.1 °F 40.3 °F 26.8 °F 49% 30.24 in 10.0 mi NNW 9.2 mph - N/A   Clear
11:35 AM 46.0 °F 40.6 °F 26.2 °F 46% 30.24 in 10.0 mi NW 11.5 mph - N/A   Clear
12:15 PM 47.5 °F - 26.1 °F 43% 30.23 in 10.0 mi NNW 15.0 mph 20.7 mph N/A   Clear
12:35 PM 48.7 °F - 26.2 °F 42% 30.22 in 10.0 mi NNW 15.0 mph 18.4 mph N/A   Clear
12:55 PM 49.6 °F - 26.4 °F 41% 30.21 in 10.0 mi NNW 13.8 mph 20.7 mph N/A   Scattered Clouds
1:15 PM 48.6 °F - 26.1 °F 42% 30.20 in 10.0 mi NW 12.7 mph 16.1 mph N/A   Scattered Clouds
1:35 PM 50.9 °F - 26.6 °F 39% 30.19 in 10.0 mi NW 15.0 mph 21.9 mph N/A   Scattered Clouds
1:55 PM 50.4 °F - 26.2 °F 39% 30.18 in 10.0 mi WNW 11.5 mph 20.7 mph N/A   Mostly Cloudy
2:15 PM 51.3 °F - 26.6 °F 38% 30.18 in 10.0 mi WNW 16.1 mph 24.2 mph N/A   Mostly Cloudy
2:35 PM 50.2 °F - 26.8 °F 40% 30.17 in 10.0 mi NW 12.7 mph 20.7 mph N/A   Mostly Cloudy
2:55 PM 50.2 °F - 26.2 °F 39% 30.17 in 10.0 mi NNW 17.3 mph 25.3 mph N/A   Mostly Cloudy
3:15 PM 50.2 °F - 27.0 °F 41% 30.16 in 10.0 mi NW 12.7 mph 18.4 mph N/A   Scattered Clouds
3:35 PM 49.6 °F - 27.0 °F 41% 30.16 in 10.0 mi NNW 13.8 mph 19.6 mph N/A   Mostly Cloudy
3:55 PM 49.1 °F - 25.9 °F 40% 30.16 in 10.0 mi NW 16.1 mph 23.0 mph N/A   Mostly Cloudy
4:15 PM 49.5 °F - 25.9 °F 40% 30.16 in 10.0 mi NW 16.1 mph 21.9 mph N/A   Scattered Clouds
4:35 PM 50.2 °F - 25.7 °F 39% 30.16 in 10.0 mi North 16.1 mph 21.9 mph N/A   Scattered Clouds
4:55 PM 49.6 °F - 25.3 °F 39% 30.17 in 10.0 mi NNW 15.0 mph 26.5 mph N/A   Mostly Cloudy
5:15 PM 49.5 °F - 25.2 °F 39% 30.17 in 10.0 mi NNW 18.4 mph 26.5 mph N/A   Mostly Cloudy
5:35 PM 48.2 °F - 24.4 °F 39% 30.18 in 10.0 mi NNW 18.4 mph 21.9 mph N/A   Mostly Cloudy
5:55 PM 46.4 °F 40.1 °F 24.1 °F 42% 30.18 in 10.0 mi NNW 15.0 mph - N/A   Scattered Clouds
6:15 PM 45.5 °F 39.6 °F 24.4 °F 44% 30.19 in 10.0 mi NNW 12.7 mph 21.9 mph N/A   Clear
6:35 PM 44.2 °F 37.6 °F 24.8 °F 46% 30.20 in 10.0 mi NNW 13.8 mph 21.9 mph N/A   Clear
6:55 PM 43.5 °F 36.7 °F 23.5 °F 45% 30.20 in 10.0 mi NNW 13.8 mph - N/A   Clear
7:15 PM 42.1 °F 35.7 °F 24.3 °F 49% 30.21 in 10.0 mi NNW 11.5 mph - N/A   Clear
7:35 PM 41.4 °F 34.3 °F 24.8 °F 52% 30.22 in 10.0 mi NNW 12.7 mph - N/A   Clear
7:55 PM 40.8 °F 32.9 °F 25.2 °F 54% 30.22 in 10.0 mi North 15.0 mph 18.4 mph N/A   Clear
8:15 PM 39.9 °F 32.1 °F 26.1 °F 58% 30.23 in 10.0 mi North 13.8 mph 19.6 mph N/A   Scattered Clouds
8:35 PM 38.8 °F 30.8 °F 26.1 °F 60% 30.23 in 10.0 mi North 13.8 mph - N/A   Scattered Clouds
8:55 PM 37.6 °F 31.0 °F 26.1 °F 63% 30.25 in 10.0 mi North 9.2 mph - N/A   Scattered Clouds
9:15 PM 37.4 °F 28.9 °F 23.5 °F 57% 30.26 in 10.0 mi North 13.8 mph 20.7 mph N/A   Scattered Clouds
9:35 PM 36.5 °F 29.2 °F 22.6 °F 57% 30.26 in 10.0 mi North 10.4 mph 16.1 mph N/A   Mostly Cloudy
9:55 PM 36.5 °F 30.3 °F 22.5 °F 57% 30.26 in 10.0 mi North 8.1 mph - N/A   Overcast
10:15 PM 35.8 °F 31.9 °F 22.5 °F 58% 30.26 in 10.0 mi North 4.6 mph - N/A   Overcast
10:35 PM 34.9 °F 30.8 °F 22.6 °F 61% 30.27 in 10.0 mi North 4.6 mph - N/A   Mostly Cloudy
10:55 PM 35.6 °F 31.7 °F 23.4 °F 61% 30.27 in 10.0 mi North 4.6 mph - N/A   Mostly Cloudy
11:15 PM 34.7 °F 29.6 °F 23.4 °F 63% 30.27 in 10.0 mi North 5.8 mph - N/A   Overcast
11:35 PM 34.9 °F 27.1 °F 22.6 °F 61% 30.27 in 10.0 mi North 10.4 mph - N/A   Overcast
11:55 PM 33.8 °F 26.4 °F 22.3 °F 63% 30.27 in 10.0 mi North 9.2 mph - N/A   Overcast